RH
6 7 10 12 13 23 40 51 60 65 63 64 68 69 77 91 89 79 80 80 84 94 88 80 81 80 80 80 74 70 78 86 89 91 92 89 83 76 69 63 62 64 72 81 83 84 89 89 78 65 61 65 69 63 58 55 36 29 34 20 10 14 15 18 21 26 26 19 16 15 14 13 16 23 23 31 43 43 51 61 58 52 55 62 66
8 8 11 14 14 18 25 34 45 58 64 63 58 58 69 83 78 68 70 72 77 93 97 89 86 82 82 85 79 72 78 87 89 90 89 87 85 78 68 61 57 54 58 69 80 87 91 90 81 69 61 59 60 57 51 40 24 27 35 18 11 16 17 20 21 22 20 16 16 14 14 14 16 21 23 30 38 42 52 55 52 53 56 63 67
10 12 12 13 17 22 34 51 61 68 70 54 46 61 72 73 69 56 60 78 85 93 99 91 86 83 82 86 84 78 78 85 92 92 87 86 87 80 73 66 58 55 61 72 83 90 88 85 79 70 65 60 54 52 44 31 21 26 27 17 16 19 19 22 22 20 18 17 15 13 15 16 16 18 21 27 30 37 48 52 55 59 58 64 65
12 14 15 12 18 31 49 62 63 67 70 54 53 74 76 70 69 51 54 88 99 95 95 90 84 83 87 92 90 84 82 88 94 89 83 82 81 77 73 67 60 61 71 81 88 92 87 83 79 73 69 64 54 48 40 32 30 31 26 22 22 22 23 25 22 19 19 17 16 15 15 14 15 16 17 21 22 26 39 49 55 55 53 61 60
17 15 17 13 13 27 51 66 69 73 69 59 62 67 63 70 78 58 51 77 92 91 92 94 94 93 97 100 97 92 88 90 90 82 75 72 71 73 73 66 59 62 76 86 88 90 84 77 75 72 69 64 56 49 41 35 34 33 30 29 28 30 30 27 23 20 19 19 16 15 15 13 15 14 14 17 18 21 32 42 47 45 49 60 58
18 12 11 16 18 20 38 57 69 75 68 61 59 53 49 60 74 71 64 69 76 80 85 92 99 100 100 99 99 99 92 89 86 77 70 70 71 72 72 67 61 68 85 90 85 80 69 60 62 68 67 64 60 54 48 44 41 38 37 39 40 42 39 32 25 21 19 19 16 15 15 13 14 14 14 17 17 21 29 35 37 38 48 62 58
19 20 21 27 26 17 27 44 53 58 59 57 52 48 45 43 51 63 67 63 64 71 76 83 91 95 95 94 94 96 93 87 81 73 70 71 75 74 70 66 62 72 89 93 88 75 59 54 61 68 68 66 65 61 58 56 53 51 51 51 52 49 41 32 25 22 21 19 17 16 15 15 16 16 15 17 18 22 25 28 33 37 47 57 51
40 45 46 42 33 23 28 39 42 45 52 54 52 52 45 32 31 43 56 61 63 69 73 77 80 80 79 79 83 89 90 84 74 70 69 65 68 71 70 67 64 68 78 89 92 74 57 60 69 73 71 68 69 69 67 65 62 62 60 59 57 49 38 29 25 24 21 18 17 16 17 18 17 17 16 18 21 25 26 25 28 35 44 47 38
58 63 61 55 52 44 36 36 35 35 47 53 51 52 45 33 29 33 46 57 63 70 73 73 72 68 68 66 67 73 78 77 72 71 71 64 63 69 71 70 69 70 77 87 90 73 58 64 73 76 75 73 74 75 73 71 68 67 65 61 55 43 32 28 26 24 21 19 17 16 18 19 18 17 17 20 23 26 30 28 26 33 40 39 28
66 72 71 67 68 61 52 60 58 39 35 40 38 41 46 43 33 27 34 49 65 75 77 78 75 71 70 66 61 62 65 68 68 70 75 71 68 73 77 78 79 83 91 96 93 77 65 68 73 72 74 76 79 80 77 74 73 71 66 60 48 35 29 28 27 25 23 21 18 17 18 17 17 16 16 22 24 24 29 30 30 34 38 35 24
73 73 73 72 72 63 57 69 71 47 25 21 26 35 46 49 37 27 29 40 58 74 79 81 82 79 77 74 70 66 64 64 65 66 71 74 73 73 76 81 85 89 94 97 93 78 67 69 67 61 68 78 81 81 81 78 77 73 66 55 41 31 29 30 29 28 26 23 19 18 17 15 16 17 18 21 21 20 25 30 32 33 34 34 24
73 67 67 69 66 57 56 61 61 52 41 40 54 62 60 56 45 35 33 35 44 62 75 79 82 85 84 81 80 76 68 63 64 65 64 67 68 68 70 75 81 84 86 91 88 74 65 62 55 54 68 81 83 84 85 84 81 74 63 49 37 32 32 33 32 31 29 25 21 18 16 16 16 18 20 19 17 18 23 31 37 31 29 33 25
70 65 63 64 56 51 66 77 68 62 63 67 81 84 67 51 47 46 47 45 39 45 62 75 84 91 88 82 83 84 74 62 64 69 67 63 62 61 64 69 77 81 84 89 88 81 74 63 54 62 78 86 88 89 89 87 80 71 60 45 34 33 35 37 36 35 32 27 23 20 17 17 17 19 21 19 16 18 22 32 40 36 29 31 27
67 66 65 66 62 54 61 70 65 65 65 58 67 83 75 55 47 51 57 57 48 43 52 67 82 94 93 89 92 93 83 69 67 74 72 69 68 64 61 65 75 83 86 90 91 88 84 72 64 72 86 93 94 94 91 84 75 65 55 43 36 37 39 41 41 39 37 32 27 22 19 18 19 20 21 19 17 18 22 29 39 42 35 29 25
67 66 66 67 68 62 57 56 55 61 60 49 53 70 77 69 62 63 66 64 56 46 44 56 76 93 98 97 99 96 86 74 71 77 78 75 74 74 69 65 72 85 91 90 90 92 89 80 73 76 88 96 98 97 89 77 70 62 52 43 40 41 42 44 45 44 43 39 31 24 20 19 20 21 21 19 18 20 23 26 31 35 34 27 21
69 65 62 62 64 63 59 54 51 51 48 45 48 52 58 64 68 76 79 70 60 51 50 61 78 94 101 98 95 92 86 77 70 71 76 77 74 75 77 72 72 81 89 89 92 98 92 80 79 84 92 99 101 95 81 70 68 63 54 47 44 45 46 49 51 50 47 42 33 25 21 21 21 21 21 20 21 22 23 24 24 26 27 23 18
61 57 54 54 55 54 51 48 49 49 44 40 40 44 53 59 63 78 90 86 75 65 61 69 79 89 95 92 87 84 81 76 68 64 68 73 70 70 76 78 78 79 83 90 99 99 87 78 86 95 97 100 100 89 73 66 66 63 58 51 47 49 51 54 57 55 49 41 32 26 23 23 23 22 21 20 22 23 23 24 24 24 23 19 15
55 55 53 53 53 51 49 49 47 45 41 35 30 32 45 58 62 73 92 99 91 76 66 69 78 84 85 84 82 80 77 75 72 67 66 68 69 75 81 83 86 87 86 93 101 97 86 82 92 98 99 101 96 81 70 66 64 62 58 53 50 53 55 58 60 57 49 39 32 27 26 25 24 22 21 20 21 22 23 25 25 22 19 17 14
57 58 57 54 51 49 47 43 43 49 53 51 44 34 40 60 70 73 88 101 93 74 61 60 68 75 78 79 81 84 87 87 82 76 72 71 72 80 85 85 91 97 95 98 101 98 92 89 94 99 100 100 91 78 74 71 65 63 58 53 52 54 57 61 62 57 48 38 33 31 29 28 26 23 20 19 20 22 23 25 25 23 20 18 16
59 60 59 54 47 45 42 42 60 82 86 81 72 56 55 78 91 85 90 100 88 66 55 56 64 75 83 87 89 92 94 92 88 82 78 77 74 75 82 88 96 101 100 100 100 100 96 92 95 99 100 100 91 81 79 75 69 66 61 56 55 57 61 65 64 57 47 40 37 35 32 30 27 24 21 20 20 22 24 24 25 25 23 20 19
62 63 60 54 50 48 42 42 65 87 88 83 77 67 72 92 99 90 90 97 85 60 51 55 63 72 79 83 86 87 86 86 85 81 77 78 79 78 81 90 98 101 100 100 100 100 98 96 98 100 100 100 95 87 83 78 73 71 67 62 61 64 68 68 64 56 48 44 41 38 35 32 27 24 22 21 22 23 24 24 24 24 23 21 20
66 63 55 50 53 59 55 47 53 67 75 77 71 68 78 92 97 94 91 91 81 59 48 54 60 61 61 63 69 72 72 74 76 76 74 74 79 83 82 83 91 96 97 98 100 100 100 99 99 100 100 100 98 92 87 81 76 73 72 70 70 71 72 69 63 56 51 49 45 40 37 33 28 25 23 21 22 23 24 24 23 23 23 24 24
63 59 53 52 54 59 60 54 50 53 61 66 65 65 75 86 93 92 84 80 73 58 52 58 61 58 56 59 63 63 62 62 67 72 72 72 81 88 84 77 76 85 96 97 95 97 100 98 97 99 100 100 100 97 92 85 78 75 76 77 75 73 72 69 63 57 55 52 49 45 41 36 32 32 31 24 21 23 26 26 25 25 26 27 30
59 57 54 56 56 52 49 47 45 45 49 55 57 57 64 73 82 86 81 77 74 67 67 73 73 70 71 68 61 58 61 66 68 71 71 73 85 93 87 75 68 78 92 92 88 95 101 98 95 98 101 100 100 100 95 87 80 79 80 79 76 74 73 69 65 61 57 55 53 50 48 45 41 39 38 30 24 24 24 25 25 26 28 29 31
62 61 59 58 53 48 44 44 45 47 51 53 53 52 53 56 64 75 77 75 75 71 69 71 70 69 69 66 64 70 83 89 83 76 73 76 89 98 89 74 65 68 77 81 88 100 102 96 95 99 101 100 101 101 95 87 84 84 81 77 77 76 73 70 67 63 59 56 55 52 51 50 47 45 44 40 38 35 30 28 27 26 27 27 27
55 54 54 52 46 44 45 46 48 54 57 55 52 52 50 47 50 57 59 59 59 56 54 57 63 64 62 63 71 78 87 95 91 84 81 82 91 99 90 74 61 58 68 83 95 102 99 94 96 100 101 100 101 100 94 89 89 86 80 78 79 78 74 71 67 63 60 57 55 54 53 51 48 47 46 44 43 41 39 39 38 38 38 36 35
40 40 39 38 38 41 44 46 48 53 57 57 54 51 47 43 42 44 46 46 45 43 42 44 47 50 53 57 66 72 78 87 90 87 86 87 93 96 88 75 60 55 72 93 101 101 99 97 98 100 100 100 101 100 96 95 95 90 84 83 82 79 74 69 65 61 58 56 55 55 56 56 52 50 49 48 48 47 46 47 50 52 52 50 48
33 33 31 30 31 32 36 43 48 52 54 54 52 50 46 43 39 39 39 39 39 37 33 34 38 46 53 54 57 71 86 93 93 91 87 86 91 91 82 73 62 58 76 96 100 99 99 99 100 100 99 100 101 101 100 100 101 96 91 90 88 84 76 69 64 60 57 58 58 56 56 56 53 52 54 57 60 61 58 57 59 61 61 60 58
36 33 32 30 29 27 30 39 47 52 54 53 52 49 46 42 39 37 35 32 33 29 26 35 47 58 65 56 47 62 87 97 97 97 90 86 91 88 78 72 67 67 81 92 94 95 96 98 101 99 99 101 101 100 101 103 104 102 99 97 95 89 79 70 64 59 57 58 56 52 50 50 49 51 55 59 64 67 66 64 63 63 62 62 61
41 41 40 38 35 32 31 34 37 41 43 45 47 45 43 40 36 33 31 27 27 25 23 28 36 52 74 72 53 55 76 90 98 100 92 88 93 90 81 79 74 74 87 94 92 95 98 99 101 100 100 101 100 100 100 101 102 102 101 102 99 92 83 73 66 62 60 59 59 56 55 57 58 59 63 68 73 75 74 73 71 67 64 60 59
48 48 48 49 47 42 37 35 33 33 32 32 35 35 35 34 31 29 27 25 25 25 24 21 21 38 66 71 57 55 68 84 96 101 95 91 95 93 86 84 79 77 89 98 98 99 101 100 99 98 99 100 99 100 99 98 99 100 101 103 100 93 86 79 74 70 68 68 69 70 71 73 73 72 74 79 83 84 85 85 84 81 77 71 66
52 53 55 56 55 50 44 40 38 35 31 27 27 27 27 27 26 25 24 25 27 26 26 24 20 27 45 57 60 64 74 88 97 100 96 93 97 96 90 89 88 84 90 99 101 100 100 98 96 95 97 99 100 100 99 96 96 97 98 101 99 95 92 88 85 83 80 77 75 75 76 78 80 79 76 77 79 80 82 83 86 88 88 84 78
53 56 59 62 63 58 51 48 46 43 37 32 27 25 24 23 21 23 25 28 30 29 28 26 23 29 44 61 73 76 78 88 97 99 98 96 98 99 92 90 93 92 94 99 101 99 96 95 96 98 100 100 99 98 97 95 94 94 93 95 98 98 96 92 88 86 83 78 73 71 73 80 85 86 83 82 80 76 74 75 79 82 82 82 83
51 54 56 60 64 63 59 57 54 50 45 41 35 29 25 22 20 22 27 30 32 33 35 39 49 63 69 71 79 85 86 91 98 100 99 97 99 101 94 89 92 98 100 100 101 99 94 93 97 101 101 99 97 96 96 96 95 94 93 95 98 100 99 94 87 82 76 70 65 64 70 80 85 84 84 83 81 79 79 79 77 72 68 72 82
50 52 52 54 57 59 60 59 56 52 48 46 44 38 31 27 24 24 28 32 33 34 38 47 63 84 94 93 92 93 94 97 99 99 98 98 99 99 96 94 96 101 101 98 98 100 98 95 96 98 98 97 96 99 100 96 89 86 89 91 91 92 92 89 83 77 71 68 69 75 83 87 87 87 89 89 89 90 90 85 79 76 78 85 92
56 54 51 49 50 51 54 55 53 49 47 45 45 43 38 33 29 27 28 30 32 34 39 45 57 74 91 99 99 97 97 99 99 98 97 99 99 96 94 96 99 101 100 95 93 96 99 97 94 94 97 98 98 101 98 88 80 79 80 82 84 84 85 85 84 81 79 80 86 95 99 98 96 97 96 93 94 95 93 91 92 94 97 99 99
62 62 62 58 54 50 50 53 52 49 48 45 43 42 40 37 34 31 29 28 29 31 36 45 63 82 93 98 99 100 100 99 99 98 97 98 98 96 94 98 100 101 101 96 90 91 95 97 96 97 99 100 101 98 89 80 79 83 85 89 91 91 93 95 95 95 95 97 99 100 95 93 96 100 97 96 99 100 98 97 98 99 100 100 99
61 64 69 72 71 63 57 57 56 52 51 49 46 43 42 40 38 35 33 30 29 30 32 37 51 72 88 97 100 100 100 100 99 99 98 97 97 96 98 101 101 99 98 96 92 92 96 98 100 101 100 100 99 93 85 82 87 92 96 100 98 95 98 102 101 100 101 101 99 94 87 88 95 100 100 99 97 94 94 94 94 96 99 100 99
59 60 63 67 69 66 62 60 58 55 54 54 51 47 44 42 41 39 37 35 32 32 34 36 40 49 66 87 100 100 100 101 101 99 99 98 97 96 98 101 100 96 97 98 96 93 92 93 95 98 100 99 98 96 93 94 97 98 100 101 99 97 100 101 99 100 99 96 95 95 94 97 101 100 95 90 85 84 88 95 98 99 101 100 99
54 57 60 60 58 58 58 57 56 55 55 54 51 49 47 44 42 42 42 40 37 33 33 36 39 40 48 69 91 99 99 100 100 100 100 100 100 98 99 101 100 98 98 100 98 93 91 91 93 96 99 100 99 99 100 100 100 100 100 101 100 99 100 99 98 100 100 98 99 100 100 100 96 90 83 81 81 84 88 96 101 101 101 101 100
50 52 55 57 57 55 53 51 50 50 51 51 48 47 48 46 43 42 43 43 41 38 35 35 39 42 42 51 71 88 96 98 96 94 95 98 99 98 98 100 101 100 100 101 99 97 96 96 98 98 100 100 99 99 100 100 100 100 100 101 101 100 101 101 100 100 100 99 99 97 95 93 89 86 85 86 89 91 92 96 100 100 100 101 100
51 50 50 51 53 55 57 55 51 48 49 49 47 46 45 44 44 43 43 43 43 41 37 35 38 43 44 45 53 69 86 96 96 94 94 95 97 98 99 101 100 98 98 99 99 100 100 99 99 99 99 100 100 100 101 101 100 100 101 100 99 97 95 95 97 97 96 95 94 93 94 95 95 95 96 97 99 100 99 100 100 100 101 101 100
51 51 52 53 51 53 58 57 52 48 47 48 49 49 46 42 43 46 46 44 43 42 40 37 38 43 47 47 48 54 65 78 89 95 97 98 99 99 98 100 100 98 98 99 99 100 101 100 99 99 99 100 100 100 101 100 100 100 101 98 92 87 87 89 92 94 94 93 93 94 95 96 96 95 95 95 96 99 102 101 100 100 100 99 98
55 55 60 63 62 60 60 56 51 47 45 44 45 47 47 43 41 45 50 50 50 49 46 42 41 44 47 50 50 50 54 63 74 83 87 91 97 100 98 99 100 99 99 100 100 100 100 99 99 100 100 100 101 101 101 100 101 101 99 93 86 83 84 86 88 89 91 92 91 90 88 86 86 89 91 92 93 96 99 99 98 97 95 92 90
65 63 65 67 69 71 72 70 65 57 50 45 41 41 43 43 42 42 46 52 57 60 58 52 48 48 51 55 56 55 55 60 68 77 83 87 90 93 95 97 100 101 101 101 100 100 100 100 100 101 100 101 100 99 98 100 102 101 97 93 89 86 86 87 89 92 93 92 90 87 84 81 80 81 80 79 79 79 80 80 79 78 76 76 77
81 78 76 76 78 81 84 86 84 75 62 49 40 38 40 45 49 49 47 49 55 61 64 61 57 57 58 58 60 62 65 70 77 85 91 95 95 94 94 95 97 98 99 100 100 99 99 100 100 100 100 101 99 96 97 100 102 101 98 96 95 94 93 93 96 97 96 95 93 91 89 87 84 81 79 75 72 72 73 74 75 76 78 80 82
94 91 88 87 88 91 94 95 93 87 74 57 48 48 51 53 58 60 57 54 56 61 65 63 60 60 59 58 60 66 73 79 84 87 92 97 100 100 99 99 98 96 96 98 100 100 99 100 100 100 100 100 100 99 100 102 102 102 101 100 100 100 100 99 99 100 100 99 98 96 94 91 88 87 85 84 83 85 87 88 88 87 85 82 79
88 89 89 90 91 94 97 98 96 89 77 64 60 65 67 66 67 68 65 60 59 60 63 65 64 63 62 61 63 68 72 74 75 81 91 98 100 100 102 101 100 98 95 94 97 100 100 100 100 100 100 100 100 101 101 101 101 101 101 100 100 101 101 101 100 101 101 101 100 100 98 97 96 95 95 95 96 95 92 88 83 77 71 66 61
78 79 84 90 96 99 99 99 96 88 78 75 79 84 86 84 83 82 78 71 66 60 59 62 64 64 66 68 72 77 81 80 76 78 87 93 94 95 98 100 101 101 97 94 96 100 101 100 100 100 100 100 100 101 101 101 101 101 101 101 101 101 100 100 99 97 96 96 97 98 99 98 97 96 94 92 88 83 77 71 66 61 57 54 49
70 71 74 80 88 97 100 101 99 93 89 92 98 100 99 97 96 94 90 84 77 70 63 60 60 62 67 70 73 76 79 82 84 86 91 96 97 94 91 90 94 99 100 99 100 101 100 100 101 101 101 101 101 100 101 101 100 100 100 101 101 100 100 99 98 97 96 97 98 98 96 94 90 86 82 77 72 67 63 59 55 51 48 44 40
51 56 62 67 73 81 90 96 99 99 100 102 102 101 101 99 95 93 93 90 85 79 74 71 73 80 86 86 84 82 79 79 81 84 85 88 93 96 94 90 86 88 92 97 100 100 101 101 101 101 101 101 100 99 99 99 99 100 101 101 100 100 99 100 101 101 100 99 96 92 88 83 78 73 69 65 61 57 54 50 47 44 40 38 35
Wind_Speed
25 23 19 15 16 17 18 19 21 25 27 27 25 26 24 14 13 17 18 20 23 23 20 18 20 20 20 19 17 17 19 18 17 14 12 12 11 10 10 10 9 9 10 10 11 12 14 17 16 13 12 14 16 16 16 15 12 10 11 11 10 9 8 6 6 6 7 7 7 6 5 5 4 4 4 4 2 2 2 1 1 2 1 1 2
25 23 19 15 15 18 21 21 22 25 27 26 26 28 28 21 20 20 20 25 29 27 20 18 21 19 17 17 15 15 18 18 15 13 12 11 10 10 9 9 9 10 11 11 11 12 14 16 16 14 13 15 16 16 15 14 12 11 11 11 10 9 8 7 6 7 8 7 7 7 6 5 5 5 5 4 3 3 3 4 3 2 1 2 2
24 22 20 17 16 17 21 24 24 26 27 28 26 26 28 27 25 23 20 21 25 24 19 19 21 18 17 17 14 14 16 15 13 12 12 11 9 10 10 10 11 11 11 11 11 12 13 15 14 13 13 15 15 15 15 14 12 12 12 11 10 10 9 8 7 8 8 7 7 7 6 6 6 6 6 5 4 3 4 4 3 2 2 3 4
26 24 22 21 18 17 21 25 26 27 28 29 28 26 25 23 22 22 20 17 12 10 17 22 21 17 16 17 14 12 12 12 12 12 12 10 9 10 11 11 11 11 11 11 12 12 13 13 13 13 14 15 16 15 15 14 13 12 12 12 11 10 10 9 9 9 8 8 8 8 8 8 8 7 7 6 5 4 5 5 4 4 3 4 4
29 27 25 23 20 19 22 25 27 28 29 29 28 27 25 25 21 20 25 28 20 13 10 14 16 16 17 17 15 12 12 12 13 12 11 9 9 10 10 10 11 11 11 11 12 12 12 13 13 14 15 15 16 15 14 14 13 13 13 13 12 12 11 10 10 10 9 9 9 9 9 10 9 8 7 6 6 5 6 6 6 5 4 5 5
30 29 27 23 21 20 22 25 25 25 27 28 28 28 26 25 23 22 27 31 27 22 15 10 7 7 12 14 13 13 13 14 14 12 10 9 9 10 9 10 11 12 13 13 13 12 12 13 13 14 15 16 16 16 15 15 15 15 14 14 13 13 12 12 11 11 10 10 10 10 10 10 9 8 7 7 7 6 6 7 7 7 6 6 6
27 28 27 23 21 22 23 25 25 25 26 27 28 28 25 22 22 25 29 28 25 24 20 14 9 4 4 6 8 12 14 13 12 10 9 9 10 10 9 10 12 13 14 14 13 12 13 13 13 15 16 16 16 17 17 17 16 16 15 14 14 14 13 13 12 11 11 10 11 10 10 10 9 8 7 7 7 6 6 7 7 8 7 7 7
23 25 24 19 19 23 24 25 26 27 26 27 27 26 24 21 19 21 26 25 21 21 20 17 13 10 7 5 5 9 11 11 10 10 10 9 10 11 10 11 13 15 16 15 15 14 13 13 14 15 16 17 18 18 18 18 17 16 16 15 15 15 14 14 12 11 11 10 11 11 11 10 9 8 7 7 7 7 6 7 7 8 8 8 8
20 22 22 18 16 20 23 26 28 27 25 25 26 25 23 21 18 17 19 22 21 20 19 16 13 11 11 10 9 9 11 11 11 11 11 11 12 12 12 13 15 16 17 17 16 15 14 14 15 17 17 18 19 19 19 19 18 17 16 15 15 15 15 14 12 11 11 11 11 11 11 10 9 8 8 8 8 7 7 7 8 8 8 8 8
21 22 22 21 20 20 21 23 24 22 22 23 25 26 25 22 19 17 16 18 19 19 18 16 13 10 10 11 11 13 14 13 12 11 12 12 13 13 13 14 15 16 17 18 17 15 14 15 17 18 18 19 19 19 19 19 18 17 16 16 16 16 15 13 12 12 12 11 12 12 11 10 9 9 8 8 8 8 8 8 8 8 8 8 9
22 23 23 24 24 23 22 23 23 20 20 23 26 26 25 23 21 20 17 17 18 19 18 17 15 12 12 11 10 12 15 15 13 12 13 14 14 14 14 15 15 16 16 17 17 15 15 16 18 18 18 18 19 19 19 19 19 18 17 17 17 16 15 13 12 12 12 12 12 11 10 9 9 9 9 9 9 9 9 9 9 9 9 9 10
24 27 28 27 26 26 25 25 23 19 18 22 23 23 23 23 23 22 19 18 18 19 19 19 18 16 16 16 13 13 13 14 13 14 15 17 17 17 17 17 17 17 17 16 17 16 16 17 18 18 18 18 19 20 19 19 18 18 17 18 18 17 16 14 13 13 13 12 12 11 10 10 10 9 9 9 9 9 10 10 11 10 10 11 12
27 29 31 30 27 25 22 20 19 19 22 24 23 24 26 25 24 22 21 20 19 20 21 21 20 20 19 18 19 20 17 15 14 14 16 17 18 20 20 20 20 20 18 18 18 18 17 18 18 18 18 19 20 20 19 19 18 18 18 18 18 18 17 16 15 14 14 13 12 12 11 11 10 10 10 10 10 9 10 11 11 11 11 12 14
29 30 31 30 27 25 23 22 22 25 27 26 25 26 26 24 23 22 22 21 20 20 22 22 22 22 21 18 19 21 19 16 15 15 16 17 18 21 23 23 22 22 20 20 21 20 19 18 19 19 19 19 20 20 19 19 19 19 19 19 19 19 18 17 15 15 14 13 13 13 12 12 11 11 10 10 10 9 10 10 11 11 12 14 16
28 28 29 29 29 28 26 26 28 29 27 26 26 26 26 25 24 23 23 23 22 22 23 24 22 21 22 20 18 18 16 15 15 16 17 18 19 22 24 24 24 22 21 22 21 21 20 19 19 19 19 20 21 21 20 20 20 20 19 19 19 19 18 17 15 15 15 14 14 14 13 12 12 11 11 10 9 8 9 9 10 11 13 15 17
26 27 27 27 28 29 28 29 30 30 28 26 26 27 29 29 26 25 24 24 24 24 23 23 22 21 23 24 23 22 21 19 17 17 18 19 20 22 24 25 25 23 22 21 21 21 21 20 19 19 19 20 22 22 22 21 20 20 20 20 20 19 18 17 16 16 15 16 16 15 14 12 12 11 10 10 8 8 9 10 11 12 13 16 17
25 26 26 27 28 28 29 30 30 31 30 28 28 28 30 29 26 24 26 26 24 24 22 19 19 21 22 24 25 26 25 23 21 21 21 22 22 23 24 24 24 24 23 22 22 22 21 20 19 19 21 22 23 23 22 21 21 21 21 21 21 20 19 18 17 16 16 17 16 15 14 12 12 11 11 10 9 8 10 10 11 12 14 16 18
23 24 25 26 28 28 28 29 29 29 29 30 30 30 29 29 27 23 24 23 19 18 18 15 14 17 20 22 24 24 23 23 23 24 25 25 24 23 23 23 23 24 24 24 24 22 20 20 19 20 23 24 23 23 22 21 21 21 21 22 22 21 20 19 18 17 17 18 17 15 14 13 12 12 12 12 11 11 11 12 12 13 15 17 18
24 23 23 23 24 25 25 24 24 25 27 28 29 29 28 28 27 23 22 21 19 16 14 13 14 16 19 21 22 22 21 22 24 25 25 26 25 23 23 23 22 23 25 27 26 22 21 21 20 21 23 24 23 23 22 21 22 22 22 23 22 21 20 20 19 18 18 17 16 16 14 13 13 13 13 13 12 12 13 13 14 15 15 17 18
24 23 21 20 20 21 20 18 18 18 19 20 21 23 23 23 23 21 20 21 20 16 15 17 18 18 18 19 21 21 21 21 22 23 23 23 24 24 24 23 22 24 27 29 27 23 22 21 20 21 23 24 24 24 23 22 22 23 23 23 23 22 21 20 19 18 18 17 16 16 15 14 14 14 14 14 13 13 13 14 15 15 16 18 19
24 21 17 16 16 17 17 16 15 13 13 14 14 14 14 16 18 19 19 20 20 18 17 19 19 17 16 17 18 19 20 21 20 20 20 19 20 23 24 23 23 25 28 29 27 23 22 21 20 21 24 24 24 24 23 23 23 23 24 23 23 22 21 20 18 17 17 16 16 16 15 15 15 14 14 14 14 14 14 14 16 17 18 19 19
21 17 15 15 15 16 16 17 18 18 17 17 16 14 8 6 12 17 21 22 21 19 18 18 17 15 14 15 16 18 19 20 20 20 19 18 18 20 23 25 25 25 27 29 27 23 21 21 21 23 25 25 24 24 24 24 24 24 24 23 23 22 21 20 18 17 17 16 16 16 15 15 15 15 14 14 14 14 14 15 17 18 19 19 19
17 15 15 16 15 15 16 17 19 21 22 20 16 12 9 4 3 12 19 20 20 19 17 16 15 14 13 16 19 20 20 21 22 22 20 18 17 20 24 26 26 25 27 29 27 24 23 22 22 24 26 25 25 24 24 24 24 23 23 24 24 23 21 20 18 18 17 16 16 16 15 16 15 14 14 14 14 15 15 16 17 18 19 19 19
16 15 15 15 14 14 15 15 17 19 18 16 13 9 6 5 2 6 12 14 16 16 14 13 15 16 17 19 21 22 22 22 23 24 23 19 19 22 25 26 26 25 26 28 27 25 24 23 23 24 25 25 25 25 24 24 24 23 24 24 24 22 21 20 19 19 18 17 17 17 16 16 16 15 14 14 15 15 15 16 16 17 18 19 19
15 15 15 15 14 14 13 13 14 14 12 10 8 6 6 6 5 5 7 8 10 9 9 10 14 17 19 21 21 22 23 23 24 25 25 21 21 23 26 27 26 25 25 27 27 26 24 24 24 24 24 24 23 24 24 24 24 23 24 24 23 22 21 21 20 19 19 18 18 18 18 18 17 16 16 15 16 16 16 16 16 16 17 18 18
15 15 15 15 15 15 13 12 12 12 10 8 7 7 6 7 8 9 8 8 7 7 8 11 14 16 18 19 20 21 23 24 24 24 25 24 23 25 27 28 27 25 26 28 28 26 25 25 25 25 24 22 22 24 25 25 24 24 24 24 22 22 22 21 20 20 20 19 19 19 19 19 18 18 17 17 18 18 18 18 17 17 18 18 19
14 14 14 15 15 15 15 14 12 12 10 9 8 8 8 8 8 9 9 9 8 8 11 13 14 14 14 16 19 21 22 24 23 23 24 25 25 26 29 28 27 26 28 30 30 29 27 25 25 25 23 23 24 25 25 25 24 24 24 23 23 22 22 21 20 20 19 18 19 19 19 19 18 18 18 17 18 19 19 19 19 19 19 20 21
13 13 13 13 13 14 15 15 14 13 12 10 9 8 9 10 10 10 10 10 10 11 14 15 15 14 13 15 19 22 21 22 23 24 24 25 27 28 29 28 27 27 28 29 30 28 26 25 24 24 24 24 25 25 25 25 25 24 24 24 23 23 22 21 20 19 18 17 18 19 19 18 18 18 17 17 17 19 20 21 21 21 21 22 22
14 13 13 12 12 13 14 15 15 14 14 12 11 10 10 10 11 11 11 12 13 14 16 17 16 17 17 17 18 19 20 22 25 26 23 24 26 27 27 26 27 29 29 27 26 25 24 24 24 25 25 25 24 24 25 25 25 25 25 24 24 23 22 20 20 19 18 17 19 20 18 18 18 18 18 17 18 20 21 23 23 24 24 24 24
15 14 13 13 12 13 14 15 15 15 15 14 13 12 12 12 13 13 13 14 15 16 17 17 17 18 20 19 18 18 19 21 24 26 23 23 26 28 28 26 27 28 28 25 25 25 24 25 26 26 25 24 24 24 25 25 25 25 25 24 24 23 22 21 21 20 19 19 19 19 18 18 19 19 18 18 18 20 21 22 23 24 24 25 25
16 16 14 14 13 13 13 14 14 14 14 14 13 13 13 13 14 14 15 16 16 17 17 16 17 18 20 20 20 19 19 20 23 25 23 23 28 30 28 26 26 27 26 26 27 26 25 26 26 25 25 24 24 24 24 25 25 25 24 24 24 23 22 23 22 21 20 20 19 19 18 18 18 19 19 19 20 21 21 22 23 23 23 24 26
17 16 15 15 15 14 13 13 13 13 13 13 13 13 14 14 15 14 15 15 16 18 18 16 17 19 20 21 20 19 19 20 23 25 23 24 28 30 26 25 25 25 26 28 28 25 24 25 25 25 25 25 25 25 25 24 24 25 25 24 24 24 24 24 23 22 22 22 21 21 20 20 20 21 22 23 23 24 24 25 25 25 25 25 26
18 17 17 17 16 16 15 14 14 14 13 13 13 14 14 14 15 15 14 13 14 17 18 17 18 18 18 19 18 18 19 20 23 24 23 24 27 28 26 25 24 26 29 29 26 23 23 24 25 27 27 27 27 27 25 24 24 25 25 25 25 25 25 25 25 24 25 25 24 23 23 22 22 23 24 26 27 28 28 28 28 27 27 27 28
21 20 19 19 19 18 17 16 16 15 14 14 15 15 14 14 15 15 14 13 13 15 16 16 16 17 17 17 16 18 20 21 23 24 24 25 27 29 27 25 25 28 30 27 24 23 24 25 27 29 30 30 29 27 25 24 24 25 25 26 26 26 26 26 26 26 26 26 26 25 24 24 24 25 28 30 31 32 32 31 31 30 30 30 30
22 22 22 21 20 20 19 18 17 16 15 16 16 17 16 16 16 15 15 14 13 14 15 15 16 17 16 15 15 17 19 22 23 23 24 26 27 29 28 27 27 29 27 24 23 24 25 26 29 31 31 31 29 26 25 25 25 25 25 26 26 26 27 27 28 28 27 26 26 26 25 24 23 25 29 31 32 33 33 32 32 31 31 32 33
25 24 24 23 21 21 22 21 20 18 17 17 17 18 18 18 17 17 16 15 14 14 14 14 15 17 15 13 15 18 19 21 22 22 25 28 30 33 30 27 29 30 26 24 25 26 27 28 30 31 31 30 29 28 27 26 26 26 25 25 26 26 27 27 28 28 27 26 26 26 26 25 23 23 27 30 30 32 33 33 31 31 31 33 34
27 25 24 23 23 23 23 22 21 20 18 18 18 19 19 19 19 18 17 17 16 15 15 13 13 14 14 14 17 18 18 20 21 21 25 29 32 33 31 29 31 29 25 24 25 26 28 29 30 31 30 30 30 29 28 27 26 26 25 25 26 27 27 28 28 28 28 28 29 30 30 29 27 29 33 34 34 35 36 35 34 35 35 34 35
28 27 24 22 22 24 24 23 22 21 20 19 19 19 20 20 20 20 19 18 17 17 16 15 13 13 14 15 17 20 19 19 21 21 24 28 30 30 31 32 31 27 25 25 26 27 28 28 29 30 30 30 30 29 29 28 27 26 26 27 28 28 28 28 29 29 31 31 32 33 33 31 31 32 35 37 37 37 37 38 39 39 37 36 35
29 29 28 26 24 25 25 24 24 23 23 22 21 21 21 21 21 21 20 18 18 18 18 17 15 15 15 15 15 20 22 22 24 24 26 27 28 29 31 31 29 27 27 28 27 28 28 28 29 30 30 30 30 29 28 27 26 26 26 27 27 27 27 29 30 31 32 32 32 32 32 32 32 33 34 34 34 34 35 38 39 39 38 38 37
31 31 31 30 28 27 27 26 26 25 25 24 24 23 23 23 23 22 21 20 19 19 20 19 18 16 16 15 13 13 17 21 24 24 26 26 27 29 31 30 28 28 29 30 30 30 29 29 30 32 32 31 29 28 27 25 25 27 27 27 26 25 26 29 30 30 31 32 32 32 33 33 33 33 31 30 30 30 32 35 38 39 39 39 37
32 32 32 31 30 29 29 29 28 27 27 27 27 26 25 25 25 25 24 22 21 20 21 21 21 19 18 18 15 12 13 19 23 25 28 29 30 32 35 34 32 31 31 33 34 35 33 31 30 32 32 30 29 28 28 28 29 30 29 28 27 26 26 27 28 29 30 31 32 32 32 32 31 29 29 29 29 30 31 33 36 38 38 37 35
33 32 32 32 32 31 30 29 29 29 29 29 29 28 27 27 27 27 26 25 23 22 22 23 23 21 19 20 18 15 16 20 23 25 29 31 33 36 39 39 38 36 35 35 38 39 37 33 30 30 29 30 31 30 30 31 32 32 31 30 29 27 27 26 27 28 29 29 30 29 29 28 28 28 29 30 30 30 31 32 33 34 35 35 35
34 33 33 34 34 33 32 31 30 30 30 31 30 30 29 28 28 27 27 27 26 24 24 24 24 23 21 21 21 21 21 21 21 22 25 28 32 36 39 41 42 39 37 37 39 39 37 34 33 32 29 29 29 29 29 31 32 32 31 29 28 27 27 27 27 28 28 28 28 28 28 28 29 30 30 31 31 31 32 32 33 34 35 37 38
34 34 35 35 35 35 35 35 33 32 32 32 32 31 30 30 29 28 28 28 27 26 26 25 25 25 23 22 22 23 24 24 23 22 22 23 25 27 28 33 38 39 37 36 37 37 35 34 32 30 27 25 25 26 28 30 30 29 28 28 28 28 28 29 29 28 28 28 28 28 29 29 30 30 30 31 33 34 34 36 37 38 39 41 42
36 36 37 37 37 37 36 35 35 33 33 34 34 33 31 31 31 30 29 28 27 26 26 26 26 26 25 23 22 23 23 24 24 23 22 22 23 23 22 23 27 30 30 28 28 30 32 30 28 26 25 24 24 26 27 27 27 27 27 27 28 29 29 29 29 29 29 29 29 30 31 31 32 33 34 35 35 36 37 38 39 41 42 44 45
33 34 35 36 36 36 35 34 34 34 35 35 34 33 32 31 31 31 31 30 28 27 27 26 26 26 26 26 24 23 23 23 23 22 22 23 23 23 22 22 22 23 23 22 20 23 27 27 25 25 24 24 24 24 25 25 25 26 27 28 28 29 29 29 30 30 31 32 32 33 34 35 36 36 37 37 38 38 39 40 41 42 43 44 45
28 29 30 31 32 33 34 33 32 33 35 36 34 32 32 32 31 30 30 30 29 29 28 28 28 28 28 28 27 25 24 23 23 24 25 26 25 24 23 24 24 24 24 23 22 24 26 27 27 26 25 24 24 26 26 27 28 28 29 29 30 30 30 30 31 32 33 34 35 36 36 37 37 37 38 38 38 39 39 40 41 42 42 43 44
28 28 29 30 30 31 31 31 31 33 35 35 32 30 31 33 33 32 31 30 30 30 30 29 29 29 29 29 29 27 26 26 26 26 25 26 27 26 25 25 25 24 24 24 24 25 27 28 28 28 28 27 28 29 29 30 30 31 31 31 31 31 31 31 31 32 33 34 34 35 35 36 36 37 37 38 38 39 39 40 40 41 42 43 45
30 30 30 30 30 30 31 32 33 35 35 33 31 30 31 32 33 33 33 32 32 32 32 31 30 29 29 29 29 28 27 27 27 27 26 25 26 27 27 27 26 26 26 28 29 30 31 32 32 32 32 31 31 31 31 31 32 32 32 32 32 32 32 32 33 33 34 34 34 34 35 35 36 37 37 38 39 39 40 40 41 43 44 45 47
33 33 33 33 33 34 34 35 37 37 36 33 33 33 34 34 34 33 33 33 33 33 33 32 31 30 29 29 29 28 28 27 27 28 28 27 28 28 29 30 31 30 29 31 33 35 36 37 37 37 36 34 33 33 32 32 32 32 32 32 33 33 33 33 34 34 34 35 35 36 36 36 37 37 37 38 39 40 41 42 43 45 46 47 48
37 37 37 37 37 37 38 39 39 39 38 38 38 37 36 35 35 34 33 32 31 31 30 29 28 28 28 30 30 30 30 30 29 29 30 30 30 29 30 32 33 33 32 32 33 34 36 37 37 37 35 34 33 32 31 31 31 31 31 32 32 32 33 33 34 34 35 36 36 36 36 37 37 37 38 40 41 42 43 44 44 45 46 48 49
Wind_Direction
285 287 284 273 264 264 260 250 247 247 257 270 271 277 283 272 277 287 281 277 269 262 258 246 239 242 243 246 253 242 218 215 226 231 231 227 218 211 212 219 223 226 231 238 243 237 222 213 220 233 234 226 228 233 230 225 223 218 218 222 223 232 244 255 267 271 274 274 268 268 269 270 275 283 293 293 289 297 274 230 290 317 320 2 46
285 284 282 270 255 256 260 258 256 258 263 268 267 274 284 287 285 286 293 287 269 258 255 240 235 239 238 240 247 232 214 215 224 226 227 224 215 211 216 222 226 230 233 239 240 228 219 220 226 232 231 227 227 229 227 223 220 215 218 225 229 236 244 253 262 266 271 274 269 265 264 266 271 276 277 273 267 268 249 247 271 275 215 125 113
285 284 282 274 258 251 258 261 260 261 264 266 266 269 276 277 277 283 293 285 266 251 243 238 236 237 237 237 239 225 213 214 219 221 222 220 215 215 218 224 228 230 231 232 225 217 221 225 224 225 227 228 228 224 222 222 221 218 220 226 232 239 244 249 254 258 262 264 260 256 249 249 255 259 258 255 253 252 247 247 228 197 168 148 150
284 280 280 279 269 256 258 263 262 261 263 262 261 267 273 274 281 287 268 255 273 264 237 237 238 238 237 232 229 223 213 211 214 216 217 218 219 216 214 219 226 228 226 221 213 212 219 216 214 220 223 226 229 224 218 220 224 224 226 228 231 237 242 246 248 251 253 252 248 243 234 234 242 246 246 247 250 246 241 237 210 203 208 180 170
281 278 279 281 275 259 254 261 264 261 258 256 259 267 272 271 278 287 270 265 289 309 273 252 243 236 232 228 225 223 219 217 214 212 215 220 222 215 210 214 221 223 216 207 200 201 208 209 212 220 223 225 227 225 220 221 224 226 228 228 229 234 237 241 244 247 248 245 241 237 231 232 237 241 243 245 247 240 230 229 229 231 218 188 183
277 276 277 280 274 258 249 253 260 259 252 251 260 269 273 274 272 275 280 286 300 308 304 293 271 233 225 228 224 220 223 222 216 215 218 224 226 220 217 220 219 212 203 196 192 196 207 214 217 222 225 225 225 225 223 223 223 225 227 228 230 233 235 237 239 243 244 243 241 240 237 239 239 240 244 247 249 242 226 221 230 235 216 197 200
269 272 278 280 270 259 251 249 253 254 252 252 260 269 273 278 276 270 275 285 298 303 296 285 287 286 232 226 221 220 223 222 222 227 228 227 228 226 224 224 217 207 200 200 203 209 216 219 221 225 226 224 224 226 226 225 224 225 227 229 232 235 235 235 236 239 241 242 244 246 244 244 245 243 244 249 251 247 233 222 221 222 215 206 210
275 279 288 288 274 264 256 252 252 252 256 259 262 268 274 279 282 278 275 276 280 287 286 277 272 277 271 257 234 219 214 216 229 241 243 239 236 232 224 217 215 210 208 211 215 218 218 218 222 225 225 224 225 225 226 226 226 226 228 230 233 234 234 233 232 235 238 239 244 247 246 246 248 249 248 250 248 244 238 229 221 217 214 212 212
286 289 292 295 288 274 265 266 262 256 261 267 269 272 278 281 281 279 278 277 274 274 279 279 271 268 267 260 251 234 218 220 235 246 254 252 240 231 220 215 214 212 212 213 215 217 217 220 223 224 225 225 224 224 225 226 226 228 230 231 231 232 232 232 231 234 236 238 240 243 245 246 248 250 253 252 247 243 237 233 229 220 215 216 215
282 286 287 289 290 281 274 273 271 267 267 270 273 273 275 278 277 274 270 269 268 265 268 275 274 263 252 247 244 238 230 227 233 241 249 247 233 221 215 215 214 210 209 210 215 219 221 222 225 225 226 227 227 227 227 227 228 229 230 230 228 228 230 231 231 235 238 239 239 240 241 241 243 248 254 255 253 250 242 236 231 219 212 214 214
279 284 285 284 285 285 280 271 271 274 269 268 271 270 271 274 271 268 264 259 257 257 258 264 270 263 253 256 250 237 228 224 226 230 232 231 225 219 217 216 216 213 210 213 219 223 224 226 229 229 229 230 232 232 231 231 231 231 229 227 226 226 227 229 231 235 238 239 240 239 239 238 239 244 250 256 257 252 244 236 228 219 214 213 213
280 282 281 280 283 289 283 266 262 269 273 271 269 270 275 274 268 266 265 263 260 258 257 259 265 264 261 266 266 253 236 221 219 224 226 227 227 227 226 222 222 222 220 221 221 221 225 230 233 233 232 233 234 233 232 232 233 233 230 226 225 224 226 228 230 233 235 237 238 237 236 235 237 242 247 253 255 251 242 232 223 218 217 215 217
277 278 278 279 282 287 280 258 255 274 283 278 272 277 279 269 264 266 266 267 265 258 254 253 258 260 258 262 263 259 251 230 218 223 228 229 229 231 230 225 224 225 224 222 221 223 229 233 235 236 235 236 236 234 233 232 233 234 230 226 225 225 226 228 230 233 234 234 234 233 231 230 235 240 245 251 254 251 243 232 222 218 218 219 223
271 274 275 276 279 284 280 268 272 286 285 278 276 281 281 269 263 266 267 269 266 258 252 250 253 253 251 255 255 249 246 234 223 226 231 234 234 234 232 228 225 224 222 222 224 228 232 235 237 237 237 238 237 235 234 233 232 231 230 227 227 228 230 231 232 235 236 235 234 233 231 230 233 237 243 249 252 250 246 238 229 225 224 226 230
269 272 273 274 276 281 285 282 284 288 285 281 281 281 282 280 272 266 266 266 260 256 251 247 248 245 239 239 239 237 241 243 238 235 235 236 238 238 236 232 227 224 224 225 226 229 232 235 237 238 239 239 238 236 235 232 229 229 229 228 229 231 233 235 236 238 240 240 237 234 232 232 235 239 243 247 248 246 246 242 236 230 229 231 234
270 273 273 274 274 277 282 283 284 286 285 285 285 281 282 283 275 267 264 256 251 252 249 242 239 236 232 231 234 240 247 253 252 245 240 238 238 239 238 235 229 225 226 226 224 226 231 234 236 238 240 238 236 236 236 234 230 228 228 229 230 232 234 236 239 241 244 245 242 237 235 235 239 242 244 244 243 241 243 241 237 232 228 231 235
269 273 274 273 274 276 279 282 284 287 287 284 282 282 283 279 271 265 261 254 250 249 245 238 229 225 226 227 232 239 245 250 251 247 242 239 238 238 238 238 233 227 227 224 219 222 230 233 232 234 236 234 234 235 236 236 233 231 230 230 231 233 234 236 240 244 246 247 246 241 238 239 242 244 243 240 235 233 237 236 232 228 226 229 234
273 276 278 278 278 279 281 282 284 289 290 284 280 279 281 276 266 261 259 250 237 233 234 229 222 219 220 221 224 230 236 242 245 242 238 235 235 236 237 237 233 229 226 221 217 220 228 229 227 230 232 232 233 235 236 236 236 236 233 232 233 234 236 238 240 244 245 245 246 245 242 241 242 242 241 239 232 229 233 232 230 227 224 227 232
278 279 281 281 279 279 281 285 290 293 292 289 284 278 274 270 261 254 251 238 217 214 223 219 218 221 219 216 214 217 224 232 238 239 236 233 232 233 235 234 231 226 222 219 216 218 224 226 224 227 231 232 235 238 239 239 239 239 236 234 234 236 237 240 242 244 245 246 247 248 248 245 243 241 240 238 234 230 231 231 231 230 227 228 231
280 280 280 280 280 279 280 289 299 300 299 299 296 284 271 261 252 243 240 232 217 211 214 213 214 217 217 215 210 211 217 222 230 235 236 236 235 234 233 230 227 224 219 216 217 219 222 224 224 227 230 232 236 241 243 243 242 241 239 238 237 237 239 242 244 245 245 245 247 249 251 250 247 243 242 241 238 234 232 232 232 232 230 232 235
277 276 277 277 278 279 280 284 288 295 312 323 326 313 280 251 242 233 225 224 216 207 208 213 217 219 222 223 219 219 221 221 226 234 237 239 240 238 235 229 226 224 219 217 220 224 223 221 223 227 230 232 236 242 245 246 246 243 241 240 239 239 240 242 243 243 243 244 246 249 251 252 250 248 247 246 243 239 235 232 232 231 231 234 240
272 271 271 271 272 276 278 277 274 274 288 308 329 342 332 259 234 223 217 219 217 211 211 216 224 229 234 236 234 234 233 229 230 236 239 241 242 241 238 233 229 227 224 221 223 228 230 226 224 228 231 231 234 241 246 248 249 247 245 243 241 241 241 242 240 239 241 242 246 250 251 253 254 254 254 252 249 245 237 232 232 232 231 233 238
268 267 265 266 268 273 275 275 274 274 280 292 309 331 354 11 217 209 211 216 219 219 218 222 233 241 244 245 241 238 238 237 236 239 242 244 242 238 235 235 232 227 224 224 224 230 236 233 230 232 232 230 234 240 245 248 250 249 247 244 243 243 242 240 237 237 239 241 245 249 250 252 255 256 256 256 253 247 239 234 235 237 238 237 237
265 264 263 266 269 273 277 278 279 281 285 289 294 304 319 334 314 207 207 215 221 226 229 232 236 238 242 246 244 240 238 239 241 242 243 245 242 235 231 233 232 226 223 225 225 229 233 232 231 234 233 231 235 241 244 249 250 248 247 245 245 244 241 238 237 238 241 243 246 250 250 251 254 254 256 257 256 251 245 241 239 240 243 244 245
263 264 266 271 274 276 279 280 281 284 287 283 280 283 278 275 267 233 222 233 238 239 240 237 235 236 239 243 245 244 242 243 247 244 241 243 241 233 229 230 230 227 225 226 228 229 229 228 229 233 233 231 235 242 246 248 247 245 245 246 244 243 241 239 241 244 247 249 250 252 253 253 255 256 256 258 258 257 253 250 249 249 251 253 255
261 264 267 271 275 277 278 278 279 281 281 272 263 263 262 256 251 246 247 251 253 253 249 241 237 239 242 245 248 251 249 249 251 245 237 237 236 231 228 228 228 226 223 222 226 230 229 227 228 230 231 232 236 242 246 246 244 244 245 245 243 242 241 242 245 249 252 253 253 254 255 255 256 256 256 257 259 261 261 261 263 264 263 263 264
264 265 267 269 271 274 274 274 275 277 279 275 267 265 264 258 254 256 260 261 261 266 266 258 254 254 253 251 251 253 251 248 245 239 234 234 233 229 228 227 227 226 221 218 222 227 228 226 227 229 230 234 237 241 244 244 244 245 246 245 244 242 243 245 247 250 252 256 257 256 255 254 254 254 256 258 262 265 267 267 266 265 264 264 265
268 268 267 268 268 270 271 272 273 274 278 279 278 277 275 270 267 264 268 272 272 271 270 269 267 263 255 251 252 252 251 243 233 229 234 237 232 228 228 229 229 227 222 219 222 226 225 224 228 232 234 237 239 240 242 243 244 245 245 244 243 244 246 248 247 249 250 251 252 252 252 253 256 258 260 262 265 267 268 269 268 267 266 264 264
264 266 266 266 266 267 269 271 272 274 277 279 280 279 278 278 278 275 274 276 275 273 273 274 272 263 253 251 256 257 254 244 228 221 230 237 228 226 231 233 231 227 222 224 228 228 224 223 228 234 236 236 237 239 241 243 243 244 242 240 241 244 247 248 247 246 244 240 244 249 254 259 264 267 268 269 269 269 270 271 272 272 272 270 269
260 261 262 263 263 264 267 270 272 274 276 279 279 278 276 275 275 277 278 277 277 277 278 280 276 264 253 250 253 255 254 246 229 219 227 232 219 220 233 237 233 227 222 226 233 230 224 225 230 234 234 234 237 240 243 243 243 243 241 238 240 243 245 246 245 245 245 245 248 255 263 268 272 274 274 273 271 270 270 271 272 273 275 276 276
259 260 261 263 263 264 266 269 272 274 275 276 275 273 272 269 269 271 273 276 279 279 279 279 275 266 256 251 250 249 247 243 232 224 229 229 215 216 232 240 235 226 220 225 232 226 220 225 230 232 232 232 235 239 244 245 242 241 241 240 241 243 245 246 246 246 249 250 253 260 265 268 269 269 267 266 266 269 271 272 273 274 274 276 277
256 259 261 263 264 266 267 269 273 275 275 275 272 268 265 265 266 267 269 273 278 281 280 276 270 265 257 249 247 244 242 240 234 228 228 227 218 216 230 242 237 226 220 224 227 222 220 225 228 231 231 231 232 236 242 245 242 240 241 241 242 242 243 245 247 248 251 253 256 259 261 262 263 265 267 269 270 272 273 274 275 276 276 277 277
252 253 256 260 263 266 269 271 275 279 281 280 276 272 267 265 266 269 274 279 282 286 287 279 269 264 257 248 242 239 241 240 234 226 224 225 220 217 227 241 238 225 220 222 222 223 227 228 228 231 232 231 232 237 241 243 243 243 242 241 242 242 242 246 248 250 253 255 257 259 260 261 263 267 270 273 274 275 276 276 275 276 278 279 278
252 251 252 255 258 262 267 270 273 278 283 286 284 280 274 269 269 272 281 289 291 292 291 282 272 264 252 244 242 243 242 239 234 228 227 228 222 215 224 239 235 222 219 220 222 228 234 231 228 230 233 234 237 241 243 243 244 244 244 244 245 245 244 246 248 250 253 256 258 259 259 260 264 269 272 273 274 275 275 275 277 279 281 281 281
252 253 254 254 257 260 263 265 268 272 277 280 282 283 281 277 276 277 283 290 292 292 290 281 272 265 247 233 241 253 248 237 231 230 229 227 219 215 225 236 228 217 217 220 223 229 233 232 230 231 234 238 241 244 243 242 243 244 244 245 247 248 248 248 250 251 253 255 257 259 260 263 268 271 271 271 272 273 274 276 278 279 280 282 283
251 253 256 257 258 260 261 262 265 267 270 272 276 280 282 282 282 282 283 286 287 289 290 285 275 269 256 237 239 249 244 230 226 230 229 222 214 215 225 229 219 214 221 226 226 229 232 234 235 236 237 239 241 242 241 240 241 242 242 245 247 250 252 253 254 256 256 255 256 257 260 266 267 261 261 266 271 274 276 276 274 273 275 279 281
249 251 254 256 256 257 258 261 263 265 266 267 270 274 278 280 282 283 283 283 282 282 285 288 282 268 259 248 238 236 234 228 225 228 227 222 219 221 224 220 214 218 229 234 234 235 234 237 240 240 238 237 238 240 240 239 241 242 244 248 250 251 253 255 256 258 257 257 257 258 262 267 266 259 259 265 270 272 274 272 269 271 275 276 276
248 249 249 249 249 252 255 257 260 262 263 265 267 269 273 276 279 281 282 282 282 282 281 285 286 276 267 256 232 217 220 230 231 229 228 227 228 230 225 217 217 226 237 239 239 238 236 238 240 239 237 237 239 241 242 242 245 247 249 252 253 254 257 259 261 262 261 260 261 264 268 271 269 264 262 265 267 268 269 270 271 272 272 271 273
247 250 250 247 245 247 250 253 255 258 261 263 264 266 268 272 275 277 280 279 278 280 280 280 282 280 278 272 241 212 210 219 226 232 234 231 228 226 221 218 224 235 241 240 240 238 235 235 237 238 239 239 240 242 243 244 247 252 254 255 256 257 258 261 264 266 266 266 267 269 271 271 269 268 267 268 268 266 264 265 268 270 268 268 270
245 247 250 251 249 247 247 249 251 254 257 260 262 263 266 268 271 273 275 275 274 275 277 279 280 279 277 276 260 228 218 220 220 224 231 231 227 222 218 221 231 239 241 242 241 239 235 233 234 235 237 239 241 244 244 244 247 252 254 255 256 254 253 255 258 258 258 262 265 266 267 268 268 269 270 270 270 268 264 263 266 267 266 265 267
248 247 248 250 251 251 249 249 250 252 254 257 259 261 263 265 268 269 270 271 271 271 272 275 277 279 277 274 267 254 248 243 231 222 222 224 225 223 222 227 235 239 239 239 239 238 236 236 236 235 234 235 239 242 243 244 246 248 251 252 253 251 248 248 249 249 250 254 258 260 263 266 268 270 271 271 271 270 267 265 264 264 263 263 266
251 251 250 251 252 252 252 251 252 253 254 255 257 258 259 261 264 266 268 268 268 268 268 271 273 274 274 273 269 263 259 253 242 232 228 227 226 226 226 228 234 237 236 235 238 239 240 241 244 244 241 237 236 236 238 241 244 246 248 249 249 250 250 250 250 251 252 254 256 258 261 262 263 264 266 267 267 267 267 266 263 262 262 265 269
253 254 254 254 254 254 254 253 253 254 255 256 257 257 258 258 260 262 265 267 268 268 267 268 270 271 270 268 266 263 260 258 255 250 245 240 237 236 234 230 230 233 235 235 237 241 243 246 249 249 244 236 233 234 234 236 239 243 246 248 249 251 252 253 253 254 255 256 258 259 260 261 261 262 264 265 267 268 268 267 266 266 267 270 272
254 255 256 256 255 256 256 256 255 253 254 255 256 256 257 258 257 258 260 263 266 268 267 266 267 269 269 266 263 261 260 260 261 260 258 255 251 249 246 238 232 232 236 238 241 244 245 245 244 240 236 233 233 234 235 236 239 243 246 249 251 252 252 252 253 255 256 258 260 261 262 263 265 266 266 266 265 265 265 265 266 268 270 272 274
256 257 258 258 256 255 256 257 257 255 254 253 253 254 256 257 257 257 256 258 260 262 263 263 264 266 268 267 264 263 262 261 261 260 260 260 259 259 258 249 238 234 235 237 237 236 234 231 229 230 234 238 238 238 239 240 242 246 249 250 252 253 254 255 256 257 259 260 261 263 264 266 267 267 267 267 266 267 268 269 270 272 274 276 277
258 259 260 260 259 257 255 255 256 256 255 253 252 252 253 256 257 257 257 257 258 259 260 260 260 261 264 266 265 264 262 259 257 257 258 260 260 259 256 251 246 245 246 243 236 229 227 229 231 234 236 236 237 240 244 246 247 250 252 253 254 255 256 257 258 259 261 262 264 265 266 267 267 268 269 269 270 272 273 274 276 277 278 280 281
260 261 261 261 260 259 257 255 254 254 254 254 254 252 250 251 254 256 256 257 258 259 260 261 260 260 260 262 261 258 254 252 252 255 256 255 255 256 255 253 253 254 254 250 242 235 235 239 240 239 238 237 238 242 247 250 254 255 255 255 256 258 258 259 261 262 263 265 266 267 268 269 270 271 272 273 274 275 276 278 279 280 281 282 282
261 261 261 262 261 261 259 256 251 250 252 256 258 255 250 249 251 253 256 257 258 259 260 260 261 261 261 261 260 256 252 251 251 251 250 249 251 255 258 258 256 252 249 245 238 233 234 236 236 238 244 248 249 249 251 253 255 256 256 257 259 261 262 263 264 265 266 267 268 269 271 272 273 274 275 276 277 278 279 280 281 282 283 283 284
259 259 259 259 258 258 258 255 252 252 255 259 263 263 258 255 254 255 257 258 259 259 259 259 258 257 256 255 255 254 253 253 252 250 249 250 251 252 253 254 252 249 244 239 233 230 232 235 239 244 250 254 254 253 253 253 254 255 256 257 259 261 263 265 266 267 268 269 270 271 272 273 275 276 277 278 279 280 281 282 283 284 285 286 288
256 256 256 255 253 252 253 253 255 257 260 261 262 263 262 260 258 257 257 259 260 260 261 260 258 258 256 254 253 253 254 254 252 250 251 253 255 256 255 253 251 249 246 241 236 234 236 240 245 250 253 255 254 254 255 256 257 259 260 261 262 263 264 265 266 267 268 270 272 274 275 276 277 278 279 280 281 282 283 285 286 287 288 290 290
254 254 254 254 252 251 251 251 253 255 257 257 258 260 262 262 260 259 257 256 254 255 256 256 254 253 254 257 258 258 260 260 258 255 254 254 255 257 257 255 254 254 253 251 248 246 246 247 250 254 257 259 260 262 263 265 265 266 266 266 265 265 265 266 266 268 270 273 274 275 276 277 278 279 281 282 283 285 286 287 288 288 289 289 289